| time (UTC) | temp F | wind direction | speed knots | gust knots | rain 1hr in | rain 24hr in | rain mn in | humidity % | barometer mb |
| 20260904155416 | 78 | 114 | 9.6 | 11.3 | 0.42 | 0.42 | 0.42 | 95 | 1016.4 |
| 20260904154915 | 79 | 157 | 7.8 | 9.6 | 0.18 | 0.18 | 0.18 | 92 | 1015.7 |
| 20260904154415 | 83 | 186 | 3.5 | 4.3 | 0.00 | 0.00 | 0.00 | 84 | 1015.7 |
| 20260904153910 | 84 | 151 | 7.0 | 7.0 | 0.00 | 0.00 | 0.00 | 85 | 1015.7 |
| 20260904153405 | 85 | 90 | 3.5 | 4.3 | 0.00 | 0.00 | 0.00 | 81 | 1015.7 |
| 20260904152902 | 86 | 192 | 1.7 | 1.7 | 0.00 | 0.00 | 0.00 | 83 | 1015.3 |
| 20260904152401 | 86 | 170 | 2.6 | 3.5 | 0.00 | 0.00 | 0.00 | 82 | 1015.3 |
| 20260904151902 | 88 | 114 | 0.0 | 0.0 | 0.00 | 0.00 | 0.00 | 79 | 1015.7 |
| 20260904151401 | 88 | 94 | 2.6 | 2.6 | 0.00 | 0.00 | 0.00 | 78 | 1015.7 |
| 20260904150857 | 87 | 106 | 1.7 | 1.7 | 0.00 | 0.00 | 0.00 | 74 | 1015.7 |
| 20260904150352 | 87 | 190 | 2.6 | 2.6 | 0.00 | 0.00 | 0.00 | 78 | 1015.7 |
| 20260904145850 | 87 | 240 | 4.3 | 4.3 | 0.00 | 0.00 | 0.00 | 77 | 1015.3 |
| 20260904145346 | 87 | 209 | 3.5 | 3.5 | 0.00 | 0.00 | 0.00 | 77 | 1015.3 |
| 20260904144842 | 87 | 258 | 4.3 | 4.3 | 0.00 | 0.00 | 0.00 | 78 | 1015.3 |
| 20260904144337 | 87 | 204 | 2.6 | 2.6 | 0.00 | 0.00 | 0.00 | 78 | 1015.0 |
| 20260904143833 | 87 | 258 | 1.7 | 1.7 | 0.00 | 0.00 | 0.00 | 78 | 1015.3 |
| 20260904143330 | 86 | 222 | 3.5 | 3.5 | 0.00 | 0.00 | 0.00 | 79 | 1015.3 |
| 20260904142825 | 86 | 222 | 5.2 | 6.1 | 0.00 | 0.00 | 0.00 | 80 | 1015.0 |
| 20260904142321 | 86 | 228 | 7.8 | 8.7 | 0.00 | 0.00 | 0.00 | 80 | 1015.0 |
| 20260904141815 | 86 | 210 | 2.6 | 2.6 | 0.00 | 0.00 | 0.00 | 84 | 1015.0 |
| 20260904141310 | 86 | 213 | 5.2 | 5.2 | 0.00 | 0.00 | 0.00 | 84 | 1015.0 |
| 20260904140807 | 87 | 224 | 4.3 | 5.2 | 0.00 | 0.00 | 0.00 | 81 | 1015.0 |
| 20260904140302 | 86 | 222 | 2.6 | 3.5 | 0.00 | 0.00 | 0.00 | 83 | 1015.0 |
| 20260904135801 | 86 | 216 | 2.6 | 2.6 | 0.00 | 0.00 | 0.00 | 84 | 1015.0 |
| 20260904135256 | 86 | 166 | 6.1 | 6.1 | 0.00 | 0.00 | 0.00 | 82 | 1015.0 |
| 20260904134752 | 86 | 241 | 5.2 | 5.2 | 0.00 | 0.00 | 0.00 | 84 | 1015.0 |
| 20260904134251 | 86 | 228 | 2.6 | 3.5 | 0.00 | 0.00 | 0.00 | 84 | 1015.0 |
| 20260904133746 | 86 | 200 | 5.2 | 6.1 | 0.00 | 0.00 | 0.00 | 83 | 1015.0 |
| 20260904133242 | 86 | 198 | 2.6 | 3.5 | 0.00 | 0.00 | 0.00 | 83 | 1015.0 |
| 20260904132741 | 86 | 230 | 3.5 | 3.5 | 0.00 | 0.00 | 0.00 | 85 | 1015.0 |
| 20260904132237 | 85 | 204 | 3.5 | 3.5 | 0.00 | 0.00 | 0.00 | 86 | 1014.7 |
| 20260904131736 | 85 | 228 | 3.5 | 3.5 | 0.00 | 0.00 | 0.00 | 87 | 1014.7 |
| 20260904131232 | 85 | 228 | 3.5 | 3.5 | 0.00 | 0.00 | 0.00 | 87 | 1014.7 |
| 20260904130732 | 84 | 229 | 1.7 | 1.7 | 0.00 | 0.00 | 0.00 | 88 | 1014.7 |
| 20260904130231 | 84 | 224 | 4.3 | 4.3 | 0.00 | 0.00 | 0.00 | 88 | 1014.3 |
| 20260904125728 | 84 | 223 | 0.0 | 0.0 | 0.00 | 0.00 | 0.00 | 90 | 1014.7 |
| 20260904125223 | 83 | 216 | 3.5 | 3.5 | 0.00 | 0.00 | 0.00 | 90 | 1014.3 |
| 20260904124723 | 83 | 230 | 3.5 | 3.5 | 0.00 | 0.00 | 0.00 | 91 | 1014.3 |
| 20260904124219 | 82 | 228 | 2.6 | 3.5 | 0.00 | 0.00 | 0.00 | 91 | 1014.7 |
| 20260904123714 | 82 | 223 | 1.7 | 1.7 | 0.00 | 0.00 | 0.00 | 92 | 1014.7 |
| 20260904123210 | 82 | 240 | 1.7 | 1.7 | 0.00 | 0.00 | 0.00 | 93 | 1014.7 |
| 20260904122709 | 81 | 222 | 0.0 | 0.0 | 0.00 | 0.00 | 0.00 | 94 | 1014.3 |
| 20260904122204 | 81 | 222 | 0.0 | 0.0 | 0.00 | 0.00 | 0.00 | 95 | 1014.3 |
| 20260904121659 | 80 | 218 | 1.7 | 1.7 | 0.00 | 0.00 | 0.00 | 95 | 1014.0 |
| 20260904121155 | 80 | 222 | 0.0 | 0.0 | 0.00 | 0.00 | 0.00 | 96 | 1014.0 |
| 20260904120651 | 80 | 222 | 0.0 | 0.0 | 0.00 | 0.00 | 0.00 | 97 | 1014.0 |
| 20260904120147 | 80 | 188 | 0.0 | 0.0 | 0.00 | 0.00 | 0.00 | 97 | 1014.0 |
| 20260904115642 | 79 | 188 | 0.0 | 0.0 | 0.00 | 0.00 | 0.00 | 98 | 1014.0 |
| 20260904115137 | 78 | 188 | 0.0 | 0.0 | 0.00 | 0.00 | 0.00 | 98 | 1014.3 |
| 20260904114632 | 78 | 188 | 0.0 | 0.0 | 0.00 | 0.00 | 0.00 | 98 | 1014.3 |
| 20260904114132 | 78 | 186 | 0.0 | 0.0 | 0.00 | 0.00 | 0.00 | 98 | 1014.0 |
| 20260904113631 | 78 | 186 | 0.0 | 0.0 | 0.00 | 0.00 | 0.00 | 98 | 1014.0 |
| 20260904113131 | 77 | 186 | 0.0 | 0.0 | 0.00 | 0.00 | 0.00 | 98 | 1014.0 |
| 20260904112626 | 77 | 186 | 0.0 | 0.0 | 0.00 | 0.00 | 0.00 | 98 | 1014.0 |
| 20260904112122 | 77 | 186 | 0.0 | 0.0 | 0.00 | 0.00 | 0.00 | 98 | 1014.0 |
| 20260904111617 | 77 | 186 | 0.0 | 0.0 | 0.00 | 0.00 | 0.00 | 98 | 1014.0 |
| 20260904111113 | 77 | 186 | 0.0 | 0.0 | 0.00 | 0.00 | 0.00 | 98 | 1014.0 |
| 20260904110609 | 77 | 186 | 0.0 | 0.0 | 0.00 | 0.00 | 0.00 | 98 | 1013.6 |
| 20260904110109 | 77 | 186 | 0.0 | 0.0 | 0.00 | 0.00 | 0.00 | 98 | 1013.6 |
| 20260904105608 | 77 | 186 | 0.0 | 0.0 | 0.00 | 0.00 | 0.00 | 98 | 1013.3 |
| 20260904105103 | 77 | 186 | 0.0 | 0.0 | 0.00 | 0.00 | 0.00 | 98 | 1013.3 |
| 20260904104559 | 77 | 186 | 0.0 | 0.0 | 0.00 | 0.00 | 0.00 | 98 | 1013.6 |
| 20260904104054 | 77 | 186 | 0.0 | 0.0 | 0.00 | 0.00 | 0.00 | 98 | 1013.3 |
| 20260904103549 | 77 | 186 | 0.0 | 0.0 | 0.00 | 0.00 | 0.00 | 98 | 1013.3 |
| 20260904103046 | 77 | 186 | 0.0 | 0.0 | 0.00 | 0.00 | 0.00 | 98 | 1013.3 |
| 20260904102541 | 77 | 186 | 0.0 | 0.0 | 0.00 | 0.00 | 0.00 | 98 | 1013.3 |
| 20260904102036 | 77 | 186 | 0.0 | 0.0 | 0.00 | 0.00 | 0.00 | 98 | 1013.3 |
| 20260904101533 | 77 | 186 | 0.0 | 0.0 | 0.00 | 0.00 | 0.00 | 98 | 1013.3 |
| 20260904101029 | 77 | 186 | 0.0 | 0.0 | 0.00 | 0.00 | 0.00 | 98 | 1013.0 |
| 20260904100524 | 77 | 186 | 0.0 | 0.0 | 0.00 | 0.00 | 0.00 | 98 | 1013.3 |
| 20260904100019 | 77 | 186 | 0.0 | 0.0 | 0.00 | 0.00 | 0.00 | 98 | 1013.0 |
| 20260904095514 | 77 | 186 | 0.0 | 0.0 | 0.00 | 0.00 | 0.00 | 98 | 1013.0 |
| 20260904095009 | 77 | 186 | 0.0 | 0.0 | 0.00 | 0.00 | 0.00 | 98 | 1013.0 |
| 20260904094504 | 77 | 186 | 0.0 | 0.0 | 0.00 | 0.00 | 0.00 | 98 | 1013.0 |
| 20260904093959 | 77 | 186 | 0.0 | 0.0 | 0.00 | 0.00 | 0.00 | 98 | 1013.0 |
| 20260904093456 | 77 | 186 | 0.0 | 0.0 | 0.00 | 0.00 | 0.00 | 98 | 1013.0 |
| 20260904092950 | 77 | 186 | 0.0 | 0.0 | 0.00 | 0.00 | 0.00 | 98 | 1013.0 |
| 20260904092447 | 77 | 186 | 0.0 | 0.0 | 0.00 | 0.00 | 0.00 | 98 | 1013.0 |
| 20260904091942 | 77 | 186 | 0.0 | 0.0 | 0.00 | 0.00 | 0.00 | 98 | 1013.0 |
| 20260904091438 | 77 | 186 | 0.0 | 0.0 | 0.00 | 0.00 | 0.00 | 98 | 1013.0 |
| 20260904090932 | 77 | 186 | 0.0 | 0.0 | 0.00 | 0.00 | 0.00 | 98 | 1012.3 |
| 20260904090428 | 77 | 186 | 0.0 | 0.0 | 0.00 | 0.00 | 0.00 | 98 | 1012.3 |
| 20260904085923 | 77 | 186 | 0.0 | 0.0 | 0.00 | 0.00 | 0.00 | 98 | 1012.6 |
| 20260904085419 | 77 | 186 | 0.0 | 0.0 | 0.00 | 0.00 | 0.00 | 98 | 1012.6 |
| 20260904084919 | 77 | 186 | 0.0 | 0.0 | 0.00 | 0.00 | 0.00 | 98 | 1012.6 |
| 20260904084415 | 77 | 186 | 0.0 | 0.0 | 0.00 | 0.00 | 0.00 | 98 | 1012.6 |
| 20260904083910 | 77 | 186 | 0.0 | 0.0 | 0.00 | 0.00 | 0.00 | 98 | 1013.0 |
| 20260904083407 | 77 | 186 | 0.0 | 0.0 | 0.00 | 0.00 | 0.00 | 98 | 1012.6 |
| 20260904082857 | 77 | 186 | 0.0 | 0.0 | 0.00 | 0.00 | 0.00 | 98 | 1012.6 |
| 20260904082357 | 77 | 186 | 0.0 | 0.0 | 0.00 | 0.00 | 0.00 | 97 | 1012.6 |
| 20260904081852 | 78 | 186 | 0.0 | 0.0 | 0.00 | 0.00 | 0.00 | 97 | 1012.6 |
| 20260904081353 | 78 | 186 | 0.0 | 0.0 | 0.00 | 0.00 | 0.00 | 97 | 1012.6 |
| 20260904080849 | 78 | 186 | 0.0 | 0.0 | 0.00 | 0.00 | 0.00 | 97 | 1012.6 |
| 20260904080344 | 78 | 186 | 0.0 | 0.0 | 0.00 | 0.00 | 0.00 | 97 | 1012.6 |
| 20260904075840 | 78 | 186 | 0.0 | 0.0 | 0.00 | 0.00 | 0.00 | 97 | 1012.6 |
| 20260904075335 | 78 | 186 | 0.0 | 0.0 | 0.00 | 0.00 | 0.00 | 97 | 1012.3 |
| 20260904074834 | 78 | 186 | 0.0 | 0.0 | 0.00 | 0.00 | 0.00 | 97 | 1012.3 |
| 20260904074329 | 78 | 186 | 0.0 | 0.0 | 0.00 | 0.00 | 0.00 | 97 | 1012.3 |
| 20260904073825 | 78 | 186 | 0.0 | 0.0 | 0.00 | 0.00 | 0.00 | 97 | 1012.6 |
| 20260904073320 | 78 | 186 | 0.0 | 0.0 | 0.00 | 0.00 | 0.00 | 97 | 1012.6 |
| 20260904072816 | 78 | 186 | 0.0 | 0.0 | 0.00 | 0.00 | 0.00 | 97 | 1012.6 |
| 20260904072315 | 78 | 186 | 0.0 | 0.0 | 0.00 | 0.00 | 0.00 | 97 | 1012.6 |
| 20260904071811 | 79 | 186 | 0.0 | 0.0 | 0.00 | 0.00 | 0.00 | 97 | 1012.3 |
| 20260904071307 | 79 | 186 | 0.0 | 0.0 | 0.00 | 0.00 | 0.00 | 97 | 1012.6 |
| 20260904070806 | 79 | 186 | 0.0 | 0.0 | 0.00 | 0.00 | 0.00 | 97 | 1012.6 |
| 20260904070305 | 79 | 186 | 0.0 | 0.0 | 0.00 | 0.00 | 0.00 | 97 | 1012.6 |
| 20260904065800 | 79 | 186 | 0.0 | 0.0 | 0.00 | 0.00 | 0.00 | 97 | 1012.6 |
| 20260904065257 | 79 | 186 | 0.0 | 0.0 | 0.00 | 0.00 | 0.00 | 97 | 1012.6 |
| 20260904064756 | 80 | 186 | 0.0 | 0.0 | 0.00 | 0.00 | 0.00 | 97 | 1012.6 |
| 20260904064252 | 79 | 186 | 0.0 | 0.0 | 0.00 | 0.00 | 0.00 | 97 | 1012.6 |
| 20260904063748 | 79 | 186 | 0.0 | 0.0 | 0.00 | 0.00 | 0.00 | 97 | 1013.0 |
| 20260904063244 | 79 | 174 | 0.0 | 0.0 | 0.00 | 0.00 | 0.00 | 97 | 1012.6 |
| 20260904062740 | 80 | 174 | 0.0 | 0.0 | 0.00 | 0.00 | 0.00 | 97 | 1013.0 |
| 20260904062236 | 79 | 174 | 0.0 | 0.0 | 0.00 | 0.00 | 0.00 | 97 | 1012.6 |
| 20260904061731 | 79 | 174 | 0.0 | 0.0 | 0.00 | 0.00 | 0.00 | 97 | 1013.0 |
| 20260904061227 | 80 | 174 | 0.0 | 0.0 | 0.00 | 0.00 | 0.00 | 97 | 1013.0 |
| 20260904060724 | 80 | 174 | 0.0 | 0.0 | 0.00 | 0.00 | 0.00 | 97 | 1013.3 |
| 20260904060219 | 80 | 174 | 0.0 | 0.0 | 0.00 | 0.00 | 0.00 | 97 | 1013.3 |
| 20260904055714 | 79 | 174 | 0.0 | 0.0 | 0.00 | 0.00 | 0.00 | 97 | 1013.3 |
| 20260904055215 | 80 | 174 | 0.0 | 0.0 | 0.00 | 0.00 | 0.00 | 96 | 1013.0 |
| 20260904054710 | 80 | 174 | 0.0 | 0.0 | 0.00 | 0.00 | 0.00 | 96 | 1013.3 |
| 20260904054207 | 80 | 174 | 0.0 | 0.0 | 0.00 | 0.00 | 0.00 | 96 | 1013.3 |
| 20260904053701 | 80 | 174 | 0.0 | 0.0 | 0.00 | 0.00 | 0.00 | 96 | 1013.3 |
| 20260904053155 | 80 | 174 | 0.0 | 0.0 | 0.00 | 0.00 | 0.00 | 96 | 1013.3 |
| 20260904052652 | 80 | 174 | 0.0 | 0.0 | 0.00 | 0.00 | 0.00 | 96 | 1013.6 |
| 20260904052148 | 80 | 174 | 0.0 | 0.0 | 0.00 | 0.00 | 0.00 | 96 | 1013.3 |
| 20260904051644 | 80 | 174 | 0.0 | 0.0 | 0.00 | 0.00 | 0.00 | 96 | 1013.3 |
| 20260904051145 | 80 | 174 | 0.0 | 0.0 | 0.00 | 0.00 | 0.00 | 96 | 1013.3 |
| 20260904050640 | 80 | 174 | 0.0 | 0.0 | 0.00 | 0.00 | 0.00 | 96 | 1013.0 |
| 20260904050136 | 80 | 174 | 0.0 | 0.0 | 0.00 | 0.00 | 0.00 | 96 | 1013.0 |
| 20260904045636 | 80 | 174 | 0.0 | 0.0 | 0.00 | 0.00 | 0.00 | 96 | 1013.3 |
| 20260904045136 | 80 | 180 | 0.0 | 0.0 | 0.00 | 0.00 | 0.00 | 96 | 1013.3 |
| 20260904044632 | 80 | 192 | 0.0 | 0.0 | 0.00 | 0.00 | 0.00 | 95 | 1013.0 |
| 20260904044128 | 80 | 198 | 0.0 | 0.0 | 0.00 | 0.00 | 0.00 | 95 | 1013.3 |
| 20260904043624 | 80 | 204 | 0.0 | 0.0 | 0.00 | 0.00 | 0.00 | 95 | 1013.3 |
| 20260904043120 | 80 | 186 | 0.0 | 0.0 | 0.00 | 0.00 | 0.00 | 95 | 1013.6 |
| 20260904042616 | 81 | 180 | 0.9 | 0.9 | 0.00 | 0.00 | 0.00 | 95 | 1013.3 |
| 20260904042111 | 81 | 162 | 1.7 | 1.7 | 0.00 | 0.00 | 0.00 | 95 | 1013.6 |
| 20260904041607 | 80 | 149 | 2.6 | 2.6 | 0.00 | 0.00 | 0.00 | 95 | 1013.6 |
| 20260904041103 | 80 | 162 | 0.0 | 0.0 | 0.00 | 0.00 | 0.00 | 95 | 1013.6 |
| 20260904040602 | 80 | 162 | 0.0 | 0.0 | 0.00 | 0.00 | 0.00 | 95 | 1013.6 |
| 20260904040059 | 80 | 162 | 0.0 | 0.0 | 0.00 | 0.00 | 0.00 | 94 | 1013.6 |
| 20260904035555 | 79 | 162 | 0.0 | 0.0 | 0.11 | 0.75 | 0.75 | 94 | 1014.0 |
| 20260904035054 | 79 | 96 | 0.0 | 0.0 | 0.11 | 0.75 | 0.75 | 93 | 1014.0 |
| 20260904034549 | 79 | 82 | 0.0 | 0.0 | 0.11 | 0.75 | 0.75 | 94 | 1014.0 |
| 20260904034044 | 79 | 82 | 0.0 | 0.0 | 0.11 | 0.75 | 0.75 | 94 | 1014.0 |
| 20260904033540 | 80 | 188 | 3.5 | 3.5 | 0.07 | 0.72 | 0.72 | 95 | 1014.0 |
| 20260904033037 | 80 | 192 | 6.1 | 7.0 | 0.00 | 0.64 | 0.64 | 94 | 1014.0 |
| 20260904032533 | 80 | 144 | 0.0 | 0.0 | 0.00 | 0.64 | 0.64 | 93 | 1013.6 |
| 20260904032031 | 80 | 120 | 0.0 | 0.0 | 0.00 | 0.64 | 0.64 | 92 | 1013.6 |
| 20260904031526 | 80 | 162 | 0.0 | 0.0 | 0.00 | 0.64 | 0.64 | 92 | 1014.0 |
| 20260904031022 | 80 | 114 | 1.7 | 1.7 | 0.00 | 0.64 | 0.64 | 92 | 1014.0 |
| 20260904030518 | 80 | 114 | 4.3 | 5.2 | 0.00 | 0.64 | 0.64 | 91 | 1014.0 |
| 20260904030014 | 80 | 78 | 6.1 | 7.0 | 0.00 | 0.64 | 0.64 | 91 | 1014.0 |
| 20260904025509 | 80 | 162 | 3.5 | 3.5 | 0.00 | 0.64 | 0.64 | 90 | 1013.6 |
| 20260904025009 | 80 | 134 | 4.3 | 5.2 | 0.00 | 0.64 | 0.64 | 90 | 1013.6 |
| 20260904024504 | 80 | 186 | 4.3 | 5.2 | 0.00 | 0.64 | 0.64 | 90 | 1014.0 |
| 20260904024000 | 80 | 186 | 1.7 | 1.7 | 0.00 | 0.64 | 0.64 | 91 | 1013.6 |
| 20260904023456 | 80 | 198 | 1.7 | 1.7 | 0.00 | 0.64 | 0.64 | 92 | 1014.0 |
| 20260904022956 | 79 | 168 | 0.0 | 0.0 | 0.00 | 0.64 | 0.64 | 94 | 1014.0 |
| 20260904022452 | 79 | 174 | 2.6 | 2.6 | 0.00 | 0.64 | 0.64 | 96 | 1014.0 |
| 20260904021948 | 79 | 112 | 0.0 | 0.0 | 0.00 | 0.64 | 0.64 | 96 | 1013.6 |
| 20260904021444 | 79 | 112 | 0.0 | 0.0 | 0.00 | 0.64 | 0.64 | 96 | 1013.6 |
| 20260904020939 | 79 | 112 | 0.0 | 0.0 | 0.00 | 0.64 | 0.64 | 96 | 1014.0 |
| 20260904020434 | 79 | 112 | 0.0 | 0.0 | 0.00 | 0.64 | 0.64 | 95 | 1014.0 |
| 20260904015932 | 79 | 112 | 0.0 | 0.0 | 0.00 | 0.64 | 0.64 | 95 | 1014.0 |
| 20260904015428 | 79 | 112 | 0.0 | 0.0 | 0.00 | 0.64 | 0.64 | 95 | 1014.0 |
| 20260904014927 | 79 | 112 | 0.0 | 0.0 | 0.00 | 0.64 | 0.64 | 95 | 1014.0 |
| 20260904014422 | 79 | 112 | 0.0 | 0.0 | 0.00 | 0.64 | 0.64 | 94 | 1013.6 |
| 20260904013917 | 80 | 112 | 0.0 | 0.0 | 0.00 | 0.64 | 0.64 | 93 | 1014.0 |
| 20260904013413 | 80 | 112 | 0.0 | 0.0 | 0.00 | 0.64 | 0.64 | 93 | 1013.6 |
| 20260904012909 | 80 | 112 | 0.0 | 0.0 | 0.00 | 0.64 | 0.64 | 93 | 1013.6 |
| 20260904012408 | 80 | 112 | 0.0 | 0.0 | 0.00 | 0.64 | 0.64 | 92 | 1013.6 |
| 20260904011903 | 80 | 112 | 0.0 | 0.0 | 0.00 | 0.64 | 0.64 | 91 | 1013.6 |
| 20260904011358 | 80 | 112 | 0.0 | 0.0 | 0.00 | 0.64 | 0.64 | 91 | 1013.3 |
| 20260904010853 | 80 | 112 | 0.0 | 0.0 | 0.00 | 0.64 | 0.64 | 91 | 1013.6 |
| 20260904010350 | 80 | 112 | 0.0 | 0.0 | 0.00 | 0.64 | 0.64 | 92 | 1013.3 |
| 20260904005850 | 80 | 112 | 0.0 | 0.0 | 0.00 | 0.64 | 0.64 | 92 | 1013.3 |
| 20260904005346 | 80 | 110 | 0.0 | 0.0 | 0.00 | 0.64 | 0.64 | 92 | 1013.3 |
| 20260904004840 | 80 | 110 | 0.0 | 0.0 | 0.00 | 0.64 | 0.64 | 92 | 1013.3 |
| 20260904004337 | 80 | 139 | 0.0 | 0.0 | 0.00 | 0.64 | 0.64 | 93 | 1013.0 |
| 20260904003832 | 81 | 119 | 1.7 | 1.7 | 0.00 | 0.64 | 0.64 | 94 | 1013.0 |
| 20260904003328 | 80 | 114 | 1.7 | 1.7 | 0.00 | 0.64 | 0.64 | 94 | 1013.0 |
| 20260904002823 | 80 | 94 | 2.6 | 3.5 | 0.00 | 0.64 | 0.64 | 93 | 1013.0 |
| 20260904002319 | 80 | 138 | 2.6 | 2.6 | 0.00 | 0.64 | 0.64 | 93 | 1012.6 |
| 20260904001818 | 80 | 132 | 1.7 | 1.7 | 0.00 | 0.64 | 0.64 | 92 | 1012.6 |
| 20260904001314 | 80 | 198 | 1.7 | 1.7 | 0.00 | 0.64 | 0.64 | 93 | 1013.0 |
| 20260904000809 | 80 | 96 | 1.7 | 1.7 | 0.00 | 0.64 | 0.64 | 92 | 1013.0 |
| 20260904000310 | 79 | 132 | 3.5 | 3.5 | 0.00 | 0.64 | 0.64 | 93 | 1013.0 |
| 20260903235808 | 79 | 101 | 0.0 | 0.0 | 0.00 | 0.64 | 0.64 | 94 | 1013.0 |
| 20260903235305 | 79 | 96 | 0.0 | 0.0 | 0.00 | 0.64 | 0.64 | 94 | 1013.0 |
| 20260903234803 | 79 | 100 | 0.0 | 0.0 | 0.00 | 0.64 | 0.64 | 95 | 1013.0 |
| 20260903234301 | 79 | 85 | 0.0 | 0.0 | 0.00 | 0.64 | 0.64 | 95 | 1013.3 |
| 20260903233756 | 79 | 85 | 0.0 | 0.0 | 0.00 | 0.64 | 0.64 | 95 | 1013.0 |
| 20260903233252 | 79 | 85 | 0.0 | 0.0 | 0.00 | 0.64 | 0.64 | 95 | 1013.0 |
| 20260903232750 | 79 | 85 | 0.0 | 0.0 | 0.00 | 0.64 | 0.64 | 95 | 1013.0 |
| 20260903232247 | 79 | 85 | 0.0 | 0.0 | 0.00 | 0.64 | 0.64 | 95 | 1013.0 |
| 20260903231745 | 79 | 85 | 0.0 | 0.0 | 0.00 | 0.64 | 0.64 | 95 | 1013.0 |
| 20260903231241 | 79 | 89 | 0.0 | 0.0 | 0.00 | 0.64 | 0.64 | 96 | 1013.0 |
| 20260903230737 | 78 | 92 | 0.9 | 0.9 | 0.00 | 0.64 | 0.64 | 96 | 1013.0 |
| 20260903230236 | 78 | 106 | 0.0 | 0.0 | 0.00 | 0.64 | 0.64 | 96 | 1012.6 |
| 20260903225733 | 78 | 150 | 0.0 | 0.0 | 0.00 | 0.64 | 0.64 | 97 | 1013.0 |
| 20260903225229 | 77 | 194 | 0.0 | 0.0 | 0.00 | 0.64 | 0.64 | 97 | 1013.0 |
| 20260903224725 | 77 | 194 | 0.0 | 0.0 | 0.00 | 0.64 | 0.64 | 97 | 1013.0 |
| 20260903224221 | 77 | 194 | 0.0 | 0.0 | 0.00 | 0.64 | 0.64 | 97 | 1013.0 |
| 20260903223721 | 77 | 194 | 0.0 | 0.0 | 0.00 | 0.64 | 0.64 | 96 | 1013.0 |
| 20260903223220 | 77 | 194 | 1.7 | 1.7 | 0.00 | 0.64 | 0.64 | 96 | 1013.3 |
| 20260903222715 | 77 | 80 | 0.0 | 0.0 | 0.00 | 0.64 | 0.64 | 96 | 1013.0 |
| 20260903222214 | 77 | 66 | 2.6 | 2.6 | 0.00 | 0.64 | 0.64 | 96 | 1013.0 |
| 20260903221709 | 77 | 354 | 2.6 | 2.6 | 0.00 | 0.64 | 0.64 | 96 | 1013.3 |
| 20260903221208 | 76 | 325 | 0.9 | 0.9 | 0.00 | 0.64 | 0.64 | 96 | 1012.6 |
| 20260903220706 | 76 | 40 | 1.7 | 1.7 | 0.00 | 0.64 | 0.64 | 96 | 1013.0 |
| 20260903220201 | 76 | 66 | 0.0 | 0.0 | 0.00 | 0.64 | 0.64 | 96 | 1013.0 |
| 20260903215700 | 76 | 71 | 1.7 | 1.7 | 0.25 | 0.64 | 0.64 | 95 | 1012.3 |
| 20260903215155 | 75 | 86 | 2.6 | 3.5 | 0.25 | 0.64 | 0.64 | 95 | 1012.6 |
| 20260903214653 | 75 | 75 | 3.5 | 3.5 | 0.25 | 0.64 | 0.64 | 96 | 1012.6 |
| 20260903214149 | 75 | 162 | 0.0 | 0.0 | 0.23 | 0.62 | 0.62 | 96 | 1012.6 |
| 20260903213644 | 74 | 259 | 2.6 | 2.6 | 0.23 | 0.62 | 0.62 | 96 | 1012.6 |
| 20260903213140 | 75 | 216 | 2.6 | 3.5 | 0.23 | 0.62 | 0.62 | 96 | 1012.3 |
| 20260903212636 | 75 | 228 | 2.6 | 2.6 | 0.23 | 0.62 | 0.62 | 96 | 1012.0 |
| 20260903212131 | 75 | 204 | 1.7 | 1.7 | 0.23 | 0.62 | 0.62 | 96 | 1012.3 |
| 20260903211625 | 75 | 244 | 1.7 | 1.7 | 0.23 | 0.62 | 0.62 | 96 | 1012.0 |
| 20260903211123 | 76 | 232 | 0.0 | 0.0 | 0.23 | 0.62 | 0.62 | 96 | 1012.3 |
| 20260903210618 | 76 | 225 | 3.5 | 3.5 | 0.23 | 0.62 | 0.62 | 95 | 1012.3 |
| 20260903210114 | 76 | 232 | 6.1 | 6.1 | 0.06 | 0.45 | 0.45 | 94 | 1012.6 |
| 20260903205613 | 78 | 212 | 5.2 | 5.2 | 0.00 | 0.29 | 0.29 | 90 | 1012.6 |
| 20260903205112 | 78 | 222 | 5.2 | 6.1 | 0.00 | 0.29 | 0.29 | 88 | 1013.0 |
| 20260903204603 | 80 | 210 | 7.8 | 8.7 | 0.00 | 0.29 | 0.29 | 84 | 1013.0 |
| 20260903204058 | 81 | 210 | 11.3 | 12.2 | 0.00 | 0.29 | 0.29 | 83 | 1012.6 |
| 20260903203554 | 85 | 160 | 1.7 | 1.7 | 0.00 | 0.29 | 0.29 | 85 | 1012.3 |
| 20260903203053 | 85 | 150 | 0.0 | 0.0 | 0.00 | 0.29 | 0.29 | 84 | 1012.0 |
| 20260903202549 | 86 | 120 | 1.7 | 1.7 | 0.00 | 0.29 | 0.29 | 83 | 1012.3 |
| 20260903202044 | 86 | 118 | 2.6 | 3.5 | 0.00 | 0.29 | 0.29 | 83 | 1012.3 |
| 20260903201539 | 86 | 97 | 3.5 | 3.5 | 0.00 | 0.29 | 0.29 | 84 | 1012.3 |
| 20260903201038 | 86 | 102 | 3.5 | 3.5 | 0.00 | 0.29 | 0.29 | 82 | 1012.0 |
| 20260903200533 | 86 | 66 | 4.3 | 4.3 | 0.00 | 0.29 | 0.29 | 82 | 1012.3 |
| 20260903200028 | 86 | 52 | 4.3 | 5.2 | 0.00 | 0.29 | 0.29 | 83 | 1012.3 |
| 20260903195524 | 85 | 156 | 4.3 | 5.2 | 0.00 | 0.29 | 0.29 | 84 | 1012.3 |
| 20260903195020 | 85 | 80 | 6.1 | 6.1 | 0.00 | 0.29 | 0.29 | 84 | 1012.0 |
| 20260903194515 | 85 | 42 | 6.1 | 7.0 | 0.00 | 0.29 | 0.29 | 84 | 1012.0 |
| 20260903194010 | 85 | 102 | 6.1 | 7.0 | 0.00 | 0.29 | 0.29 | 85 | 1011.6 |
| 20260903193507 | 85 | 60 | 5.2 | 6.1 | 0.00 | 0.29 | 0.29 | 85 | 1012.0 |
| 20260903193001 | 85 | 84 | 5.2 | 5.2 | 0.00 | 0.29 | 0.29 | 85 | 1012.3 |
| 20260903192458 | 85 | 91 | 5.2 | 5.2 | 0.00 | 0.29 | 0.29 | 85 | 1013.0 |
| 20260903191953 | 85 | 152 | 6.1 | 6.1 | 0.00 | 0.29 | 0.29 | 85 | 1012.3 |
| 20260903191449 | 85 | 101 | 4.3 | 4.3 | 0.00 | 0.29 | 0.29 | 85 | 1012.3 |
| 20260903190948 | 85 | 114 | 3.5 | 4.3 | 0.00 | 0.29 | 0.29 | 85 | 1012.3 |
| 20260903190443 | 85 | 99 | 1.7 | 1.7 | 0.00 | 0.29 | 0.29 | 86 | 1012.6 |
| 20260903185942 | 85 | 132 | 3.5 | 3.5 | 0.00 | 0.29 | 0.29 | 85 | 1012.6 |
| 20260903185439 | 85 | 99 | 6.1 | 6.1 | 0.00 | 0.29 | 0.29 | 84 | 1012.6 |
| 20260903184938 | 85 | 67 | 5.2 | 5.2 | 0.00 | 0.29 | 0.29 | 82 | 1013.0 |
| 20260903184436 | 86 | 134 | 3.5 | 3.5 | 0.00 | 0.29 | 0.29 | 83 | 1013.0 |
| 20260903183935 | 85 | 96 | 1.7 | 1.7 | 0.00 | 0.29 | 0.29 | 83 | 1013.0 |
| 20260903183430 | 86 | 132 | 2.6 | 3.5 | 0.00 | 0.29 | 0.29 | 82 | 1013.0 |
| 20260903182929 | 86 | 144 | 3.5 | 3.5 | 0.00 | 0.29 | 0.29 | 82 | 1012.6 |
| 20260903182428 | 85 | 79 | 3.5 | 3.5 | 0.00 | 0.29 | 0.29 | 80 | 1012.3 |
| 20260903181924 | 85 | 114 | 4.3 | 5.2 | 0.00 | 0.29 | 0.29 | 79 | 1012.6 |
| 20260903181419 | 85 | 90 | 2.6 | 3.5 | 0.00 | 0.29 | 0.29 | 80 | 1012.6 |
| 20260903180918 | 86 | 102 | 2.6 | 3.5 | 0.00 | 0.29 | 0.29 | 80 | 1012.6 |
| 20260903180413 | 85 | 88 | 3.5 | 3.5 | 0.00 | 0.29 | 0.29 | 80 | 1013.0 |
| 20260903175913 | 85 | 72 | 3.5 | 3.5 | 0.00 | 0.29 | 0.29 | 81 | 1013.0 |
| 20260903175413 | 85 | 108 | 3.5 | 3.5 | 0.00 | 0.29 | 0.29 | 80 | 1013.0 |
| 20260903174907 | 85 | 74 | 2.6 | 2.6 | 0.00 | 0.29 | 0.29 | 82 | 1013.3 |
| 20260903174403 | 85 | 105 | 4.3 | 4.3 | 0.00 | 0.29 | 0.29 | 81 | 1013.0 |
| 20260903173902 | 85 | 64 | 2.6 | 3.5 | 0.00 | 0.29 | 0.29 | 83 | 1013.3 |
| 20260903173357 | 85 | 111 | 2.6 | 3.5 | 0.00 | 0.29 | 0.29 | 84 | 1013.6 |
| 20260903172853 | 85 | 96 | 4.3 | 4.3 | 0.00 | 0.29 | 0.29 | 83 | 1013.6 |
| 20260903172347 | 84 | 126 | 0.0 | 0.0 | 0.00 | 0.29 | 0.29 | 81 | 1013.6 |
| 20260903171843 | 84 | 49 | 2.6 | 3.5 | 0.00 | 0.29 | 0.29 | 82 | 1013.6 |
| 20260903171344 | 82 | 89 | 0.0 | 0.0 | 0.00 | 0.29 | 0.29 | 82 | 1013.3 |
| 20260903170843 | 81 | 106 | 2.6 | 2.6 | 0.00 | 0.29 | 0.29 | 85 | 1013.6 |
| 20260903170338 | 80 | 66 | 2.6 | 2.6 | 0.00 | 0.29 | 0.29 | 89 | 1013.6 |
| 20260903165836 | 81 | 162 | 1.7 | 1.7 | 0.03 | 0.29 | 0.29 | 92 | 1014.0 |
| 20260903165336 | 81 | 211 | 2.6 | 3.5 | 0.03 | 0.29 | 0.29 | 93 | 1014.0 |
| 20260903164831 | 82 | 138 | 1.7 | 1.7 | 0.03 | 0.29 | 0.29 | 94 | 1014.0 |
| 20260903164327 | 82 | 69 | 0.9 | 0.9 | 0.03 | 0.29 | 0.29 | 94 | 1014.0 |
| 20260903163826 | 82 | 68 | 1.7 | 1.7 | 0.03 | 0.29 | 0.29 | 94 | 1014.0 |
| 20260903163323 | 83 | 95 | 6.1 | 6.1 | 0.01 | 0.28 | 0.28 | 92 | 1014.0 |
| 20260903162818 | 83 | 102 | 2.6 | 3.5 | 0.00 | 0.26 | 0.26 | 91 | 1014.3 |
| 20260903162315 | 85 | 84 | 3.5 | 3.5 | 0.00 | 0.26 | 0.26 | 88 | 1014.0 |
| 20260903161810 | 85 | 90 | 3.5 | 3.5 | 0.00 | 0.26 | 0.26 | 84 | 1014.0 |
| 20260903161306 | 86 | 66 | 4.3 | 5.2 | 0.00 | 0.26 | 0.26 | 83 | 1014.3 |
| 20260903160801 | 85 | 90 | 5.2 | 5.2 | 0.00 | 0.26 | 0.26 | 84 | 1014.3 |
| 20260903160300 | 84 | 106 | 2.6 | 2.6 | 0.00 | 0.26 | 0.26 | 85 | 1014.3 |
| 20260903155758 | 84 | 108 | 1.7 | 1.7 | 0.00 | 0.26 | 0.26 | 86 | 1014.0 |